Location: Unspecified
(0.0000°N, 0.0000°E)
Time: 22:10:00
(UTC+00:00)

CFOSAT - Visible Passes

Search period start: 29 April 2025 00:00
Search period end: 09 May 2025 00:00
Orbit: 515 x 518 km, 97.4° (Epoch: 29 April)

Date Brightness Start Highest point End Pass type
(mag) Time Alt. Az. Time Alt. Az. Time Alt. Az.
01 May ? 19:04:19 10° SW 19:05:57 12° WSW 19:07:36 10° WNW visible
02 May ? 05:22:47 10° ENE 05:24:49 14° ESE 05:26:53 10° SE visible
02 May ? 18:48:34 10° SSW 18:51:26 21° WSW 18:54:18 10° NW visible
03 May ? 18:33:26 10° SSW 18:36:54 35° WSW 18:40:20 10° NW visible
04 May ? 18:18:37 10° S 18:22:20 63° WSW 18:26:03 10° NNW visible
08 May ? 05:28:38 10° ENE 05:31:14 18° ESE 05:33:51 10° SE visible
08 May ? 18:55:23 10° SW 18:57:48 16° WSW 19:00:13 10° WNW visible
